Torna al catalogo

QIANFAN-84

AttivoComunicazioniPO
NORAD 63170·PAYLOAD·🇨🇳 China

Lanciato Mar 11, 2025 da Wenchang Space Launch Site

Loading…

Prossimi Passaggi (prossime 24 ore)

TLE

AggiornatoSource: Space-Track

Epoca: Sep 14, 2026, 14:01 UTC

1 63170U 25046M   26257.58449525 -.00000054  00000-0 -10260-3 0  9991
2 63170  88.9654 291.4136 0017175  53.5387 306.7344 13.51017547 84640

Traccia QIANFAN-84 in tempo reale con AllMySat

Download on the App Store